Powrót do katalogu

STARLINK-11340

AktywnyŁącznośćVLEO
NORAD 61690·PAYLOAD·🇺🇸 United States

Wystrzelony Oct 30, 2024 z Vandenberg Space Force Base

Loading…

Następne Przeloty (najbliższe 24 godziny)

TLE

ŚwieżeSource: CelesTrak SupGP

Epoka: Sep 14, 2026, 15:04 UTC

1 61690C 24195D   26257.62826389  .00023128  00000+0  19057-3 0  2576
2 61690  53.1565 175.0413 0001169  92.9552 356.3737 15.69690472    13

Śledź STARLINK-11340 w czasie rzeczywistym z AllMySat

Download on the App Store